• In Czech Republic
  • List of Countries
  • For 7 days
  • Water Temperature
  • Satellite Maps
  • Weather Map
  • Weather Widgets
  • user-avatar
    Login

    Hourly Weather Mut

    Today, 25 February, Sunday

    Time Temperature Precipitation Wind Pressure Humidity
    00:00 +10°C° 0.7 mm 4 mps 726 mmHg 89%
    01:00 +10°C° 0.7 mm 4 mps 726 mmHg 90%
    02:00 +9°C° 0.7 mm 5 mps 725 mmHg 91%
    03:00 +10°C° 1.4 mm 4 mps 725 mmHg 91%
    04:00 +10°C° 1.4 mm 4 mps 725 mmHg 91%
    05:00 +10°C° 1.4 mm 4 mps 725 mmHg 92%
    06:00 +10°C° 0.3 mm 4 mps 725 mmHg 89%
    07:00 +11°C° 0.3 mm 3 mps 725 mmHg 86%
    08:00 +11°C° 0.3 mm 3 mps 725 mmHg 83%
    09:00 +12°C° 0 mm 3 mps 725 mmHg 77%
    10:00 +12°C° 0 mm 3 mps 725 mmHg 70%
    11:00 +13°C° 0 mm 3 mps 725 mmHg 63%
    12:00 +14°C° 0.1 mm 3 mps 725 mmHg 59%
    13:00 +14°C° 0.1 mm 3 mps 725 mmHg 55%
    14:00 +16°C° 0.1 mm 3 mps 725 mmHg 51%
    15:00 +16°C° 0 mm 3 mps 725 mmHg 52%
    16:00 +14°C° 0 mm 3 mps 725 mmHg 52%
    17:00 +14°C° 0 mm 3 mps 725 mmHg 53%
    18:00 +13°C° 0 mm 3 mps 725 mmHg 56%
    19:00 +13°C° 0 mm 2 mps 725 mmHg 59%
    20:00 +12°C° 0 mm 2 mps 726 mmHg 62%
    21:00 +10°C° 0 mm 2 mps 726 mmHg 63%
    22:00 +10°C° 0 mm 2 mps 726 mmHg 64%
    23:00 +10°C° 0 mm 2 mps 726 mmHg 64%

    Tomorrow, 26 February, Monday

    Time Temperature Precipitation Wind Pressure Humidity
    00:00 +10°C° 0 mm 1 mps 726 mmHg 66%
    01:00 +10°C° 0 mm 1 mps 726 mmHg 68%
    02:00 +10°C° 0 mm 1 mps 726 mmHg 69%
    03:00 +9°C° 0 mm 1 mps 726 mmHg 70%
    04:00 +9°C° 0 mm 1 mps 726 mmHg 71%
    05:00 +8°C° 0 mm 0 mps 726 mmHg 72%
    06:00 +10°C° 0 mm 1 mps 726 mmHg 69%
    07:00 +11°C° 0 mm 1 mps 726 mmHg 67%
    08:00 +11°C° 0 mm 1 mps 726 mmHg 64%
    09:00 +12°C° 0.1 mm 2 mps 726 mmHg 65%
    10:00 +13°C° 0.1 mm 2 mps 726 mmHg 65%
    11:00 +12°C° 0.1 mm 3 mps 726 mmHg 66%
    12:00 +12°C° 0.2 mm 3 mps 726 mmHg 67%
    13:00 +12°C° 0.2 mm 3 mps 725 mmHg 69%
    14:00 +12°C° 0.2 mm 3 mps 725 mmHg 71%
    15:00 +12°C° 0.2 mm 3 mps 725 mmHg 73%
    16:00 +12°C° 0.2 mm 3 mps 725 mmHg 75%
    17:00 +11°C° 0.2 mm 3 mps 725 mmHg 77%
    18:00 +11°C° 0.3 mm 3 mps 725 mmHg 80%
    19:00 +11°C° 0.3 mm 3 mps 725 mmHg 83%
    20:00 +10°C° 0.3 mm 3 mps 725 mmHg 86%
    21:00 +10°C° 0.6 mm 4 mps 725 mmHg 86%
    22:00 +10°C° 0.6 mm 4 mps 725 mmHg 87%
    23:00 +10°C° 0.6 mm 4 mps 724 mmHg 87%

    Day after tomorrow, 27 February, Tuesday

    Time Temperature Precipitation Wind Pressure Humidity
    00:00 +10°C° 1 mm 4 mps 724 mmHg 88%
    01:00 +10°C° 1 mm 4 mps 724 mmHg 89%
    02:00 +10°C° 1 mm 4 mps 724 mmHg 89%
    03:00 +10°C° 0.4 mm 3 mps 724 mmHg 90%
    04:00 +10°C° 0.4 mm 3 mps 724 mmHg 91%
    05:00 +9°C° 0.4 mm 2 mps 724 mmHg 92%
    06:00 +10°C° 0 mm 2 mps 725 mmHg 90%
    07:00 +10°C° 0 mm 2 mps 726 mmHg 88%
    08:00 +10°C° 0 mm 2 mps 726 mmHg 86%
    09:00 +12°C° 0 mm 2 mps 727 mmHg 80%
    10:00 +13°C° 0 mm 2 mps 727 mmHg 74%
    11:00 +13°C° 0 mm 3 mps 727 mmHg 68%
    12:00 +13°C° 0 mm 3 mps 727 mmHg 66%
    13:00 +14°C° 0 mm 3 mps 727 mmHg 64%
    14:00 +14°C° 0 mm 4 mps 728 mmHg 62%
    15:00 +14°C° 0 mm 4 mps 728 mmHg 64%
    16:00 +14°C° 0 mm 3 mps 728 mmHg 66%
    17:00 +13°C° 0 mm 3 mps 728 mmHg 68%
    18:00 +13°C° 0 mm 3 mps 729 mmHg 73%
    19:00 +12°C° 0 mm 3 mps 729 mmHg 78%
    20:00 +12°C° 0 mm 2 mps 730 mmHg 83%
    21:00 +10°C° 0 mm 2 mps 730 mmHg 84%
    22:00 +10°C° 0 mm 2 mps 730 mmHg 85%
    23:00 +10°C° 0 mm 2 mps 731 mmHg 86%

    28 February, Wednesday

    Time Temperature Precipitation Wind Pressure Humidity
    00:00 +10°C° 0 mm 2 mps 731 mmHg 86%
    01:00 +10°C° 0 mm 2 mps 731 mmHg 86%
    02:00 +9°C° 0 mm 2 mps 731 mmHg 87%
    03:00 +9°C° 0 mm 2 mps 731 mmHg 87%
    04:00 +9°C° 0 mm 2 mps 731 mmHg 88%
    05:00 +9°C° 0 mm 2 mps 731 mmHg 89%
    06:00 +10°C° 0 mm 2 mps 731 mmHg 87%
    07:00 +10°C° 0 mm 2 mps 731 mmHg 86%
    08:00 +11°C° 0 mm 3 mps 732 mmHg 84%
    09:00 +12°C° 0 mm 3 mps 732 mmHg 80%
    10:00 +12°C° 0 mm 3 mps 732 mmHg 76%
    11:00 +13°C° 0 mm 4 mps 732 mmHg 72%
    12:00 +13°C° 0 mm 4 mps 731 mmHg 71%
    13:00 +13°C° 0 mm 4 mps 731 mmHg 71%
    14:00 +14°C° 0 mm 4 mps 731 mmHg 70%
    15:00 +13°C° 0 mm 4 mps 730 mmHg 72%
    16:00 +13°C° 0 mm 4 mps 730 mmHg 74%
    17:00 +13°C° 0 mm 3 mps 730 mmHg 77%
    18:00 +12°C° 0 mm 3 mps 730 mmHg 80%
    19:00 +11°C° 0 mm 3 mps 731 mmHg 84%
    20:00 +12°C° 0 mm 2 mps 731 mmHg 88%
    21:00 +10°C° 0 mm 2 mps 731 mmHg 88%
    22:00 +10°C° 0 mm 3 mps 730 mmHg 88%
    23:00 +10°C° 0 mm 3 mps 730 mmHg 89%

    1 March, Thursday

    Time Temperature Precipitation Wind Pressure Humidity
    00:00 +10°C° 0 mm 3 mps 730 mmHg 89%
    01:00 +10°C° 0 mm 3 mps 730 mmHg 90%
    02:00 +10°C° 0 mm 2 mps 730 mmHg 90%
    03:00 +10°C° 0 mm 2 mps 730 mmHg 90%
    04:00 +10°C° 0 mm 2 mps 731 mmHg 90%
    05:00 +10°C° 0 mm 2 mps 731 mmHg 90%
    06:00 +10°C° 0 mm 2 mps 731 mmHg 89%
    07:00 +10°C° 0 mm 2 mps 731 mmHg 88%
    08:00 +12°C° 0 mm 2 mps 732 mmHg 87%
    09:00 +12°C° 0.1 mm 2 mps 732 mmHg 84%
    10:00 +13°C° 0.1 mm 2 mps 732 mmHg 81%
    11:00 +13°C° 0.1 mm 2 mps 732 mmHg 78%
    12:00 +12°C° 0.1 mm 3 mps 732 mmHg 75%
    13:00 +13°C° 0.1 mm 3 mps 732 mmHg 72%
    14:00 +13°C° 0.1 mm 3 mps 731 mmHg 69%
    15:00 +13°C° 0 mm 3 mps 731 mmHg 68%
    16:00 +13°C° 0 mm 3 mps 731 mmHg 67%
    17:00 +12°C° 0 mm 3 mps 731 mmHg 66%
    18:00 +12°C° 0 mm 3 mps 732 mmHg 67%
    19:00 +12°C° 0 mm 2 mps 732 mmHg 68%
    20:00 +10°C° 0 mm 2 mps 732 mmHg 69%
    21:00 +10°C° 0 mm 2 mps 732 mmHg 70%
    22:00 +9°C° 0 mm 2 mps 732 mmHg 71%
    23:00 +9°C° 0 mm 2 mps 732 mmHg 72%

    2 March, Friday

    Time Temperature Precipitation Wind Pressure Humidity
    00:00 +9°C° 0 mm 2 mps 732 mmHg 72%
    01:00 +8°C° 0 mm 2 mps 732 mmHg 71%
    02:00 +8°C° 0 mm 2 mps 732 mmHg 71%
    03:00 +8°C° 0 mm 2 mps 732 mmHg 70%
    04:00 +8°C° 0 mm 2 mps 732 mmHg 69%
    05:00 +7°C° 0 mm 2 mps 732 mmHg 68%
    06:00 +9°C° 0 mm 2 mps 732 mmHg 64%
    07:00 +10°C° 0 mm 2 mps 732 mmHg 59%
    08:00 +12°C° 0 mm 2 mps 733 mmHg 55%
    09:00 +13°C° 0 mm 1 mps 732 mmHg 51%
    10:00 +15°C° 0 mm 1 mps 732 mmHg 47%
    11:00 +16°C° 0 mm 1 mps 732 mmHg 43%
    12:00 +17°C° 0 mm 2 mps 732 mmHg 43%
    13:00 +17°C° 0 mm 2 mps 731 mmHg 43%
    14:00 +18°C° 0 mm 2 mps 731 mmHg 43%
    15:00 +17°C° 0 mm 2 mps 731 mmHg 49%
    16:00 +17°C° 0 mm 2 mps 731 mmHg 54%
    17:00 +16°C° 0 mm 2 mps 731 mmHg 60%
    18:00 +15°C° 0 mm 2 mps 731 mmHg 66%
    19:00 +14°C° 0 mm 2 mps 731 mmHg 72%
    20:00 +13°C° 0 mm 2 mps 731 mmHg 79%
    21:00 +13°C° 0 mm 2 mps 731 mmHg 80%
    22:00 +13°C° 0 mm 2 mps 731 mmHg 81%
    23:00 +12°C° 0 mm 2 mps 731 mmHg 82%
    Show more